sat.trackr.live / text

‹ back to catalog

STARLINK-37534

NORAD 68897 · 2026-097C

PAYLOAD ACTIVE UNKNOWN

§ Identity

Operator
Country
US
Launch date
2026-04-30
Launch site
AFWTR
Launch vehicle
Mass (kg)
RCS (m²)

Purposes: comms

External: N2YO · Heavens-Above · Gunter

§ Orbital elements

Epoch: 2026-05-25T01:46:25.783392Z

Period
92.95 min
Inclination
97.2859°
Eccentricity
0.0001906
Mean motion
15.49191980 rev/d
Perigee alt
417.8 km
Apogee alt
420.4 km
Semi-major
6,797.2 km
B*
1.0642e-3
RAAN
340.7611°
Arg perigee
95.8468°
Mean anomaly
264.3001°
Rev number
393

§ Raw data

STARLINK-375341 68897U 26097C   26145.07390953  .00058228  00000+0  10642-2 0  99952 68897  97.2859 340.7611 0001906  95.8468 264.3001 15.49191980  3936

JSON: /api/v1/satellites/68897 · /tle

For live sub-satellite position, see the globe view (requires WebGL).

§ Visibility from observer

Set your observer location to see the next 7 days of passes ≥ 10°. The values pass through the URL so the page stays shareable.

No JS? Fill the form by hand. The geolocation button needs JavaScript.